Year,Month,Day,Hour,Minute,Value (Times are PST for temperature in C)
2008,10,23,00,00,8.60
2008,10,23,00,01,8.60
2008,10,23,00,02,8.60
2008,10,23,00,03,8.60
2008,10,23,00,04,8.60
2008,10,23,00,05,8.60
2008,10,23,00,06,8.60
2008,10,23,00,07,8.70
2008,10,23,00,08,8.70
2008,10,23,00,09,8.70
2008,10,23,00,10,8.70
2008,10,23,00,11,8.70
2008,10,23,00,12,8.70
2008,10,23,00,13,8.70
2008,10,23,00,14,8.70
2008,10,23,00,15,8.70
2008,10,23,00,16,8.70
2008,10,23,00,17,8.70
2008,10,23,00,18,8.70
2008,10,23,00,19,8.70
2008,10,23,00,20,8.80
2008,10,23,00,21,8.80
2008,10,23,00,22,8.80
2008,10,23,00,23,8.80
2008,10,23,00,24,8.80
2008,10,23,00,25,8.80
2008,10,23,00,26,8.80
2008,10,23,00,27,8.80
2008,10,23,00,28,8.80
2008,10,23,00,29,8.80
2008,10,23,00,30,8.90
2008,10,23,00,31,8.90
2008,10,23,00,32,8.90
2008,10,23,00,33,8.90
2008,10,23,00,34,8.90
2008,10,23,00,35,8.90
2008,10,23,00,36,8.90
2008,10,23,00,37,9.00
2008,10,23,00,38,9.00
2008,10,23,00,39,9.00
2008,10,23,00,40,9.00
2008,10,23,00,41,9.00
2008,10,23,00,42,9.00
2008,10,23,00,43,9.10
2008,10,23,00,44,9.10
2008,10,23,00,45,9.10
2008,10,23,00,46,9.10
2008,10,23,00,47,9.20
2008,10,23,00,48,9.20
2008,10,23,00,49,9.20
2008,10,23,00,50,9.20
2008,10,23,00,51,9.20
2008,10,23,00,52,9.20
2008,10,23,00,53,9.20
2008,10,23,00,54,9.30
2008,10,23,00,55,9.30
2008,10,23,00,56,9.30
2008,10,23,00,57,9.30
2008,10,23,00,58,9.30
2008,10,23,00,59,9.30
2008,10,23,01,00,9.30
2008,10,23,01,01,9.30
2008,10,23,01,02,9.30
2008,10,23,01,03,9.30
2008,10,23,01,04,9.30
2008,10,23,01,05,9.30
2008,10,23,01,06,9.30
2008,10,23,01,07,9.30
2008,10,23,01,08,9.30
2008,10,23,01,09,9.20
2008,10,23,01,10,9.20
2008,10,23,01,11,9.20
2008,10,23,01,12,9.20
2008,10,23,01,13,9.20
2008,10,23,01,14,9.20
2008,10,23,01,15,9.20
2008,10,23,01,16,9.20
2008,10,23,01,17,9.20
2008,10,23,01,18,9.20
2008,10,23,01,19,9.20
2008,10,23,01,20,9.20
2008,10,23,01,21,9.20
2008,10,23,01,22,9.20
2008,10,23,01,23,9.20
2008,10,23,01,24,9.20
2008,10,23,01,25,9.20
2008,10,23,01,26,9.20
2008,10,23,01,27,9.20
2008,10,23,01,28,9.20
2008,10,23,01,29,9.20
2008,10,23,01,30,9.20
2008,10,23,01,31,9.20
2008,10,23,01,32,9.10
2008,10,23,01,33,9.10
2008,10,23,01,34,9.10
2008,10,23,01,35,9.10
2008,10,23,01,36,9.10
2008,10,23,01,37,9.10
2008,10,23,01,38,9.10
2008,10,23,01,39,9.10
2008,10,23,01,40,9.10
2008,10,23,01,41,9.10
2008,10,23,01,42,9.20
2008,10,23,01,43,9.20
2008,10,23,01,44,9.20
2008,10,23,01,45,9.20
2008,10,23,01,46,9.20
2008,10,23,01,47,9.20
2008,10,23,01,48,9.20
2008,10,23,01,49,9.20
2008,10,23,01,50,9.10
2008,10,23,01,51,9.10
2008,10,23,01,52,9.10
2008,10,23,01,53,9.10
2008,10,23,01,54,9.10
2008,10,23,01,55,9.10
2008,10,23,01,56,9.10
2008,10,23,01,57,9.10
2008,10,23,01,58,9.10
2008,10,23,01,59,9.10
2008,10,23,02,00,9.10
2008,10,23,02,01,9.10
2008,10,23,02,02,9.10
2008,10,23,02,03,9.10
2008,10,23,02,04,9.10
2008,10,23,02,05,9.10
2008,10,23,02,06,9.10
2008,10,23,02,07,9.10
2008,10,23,02,08,9.20
2008,10,23,02,09,9.20
2008,10,23,02,10,9.20
2008,10,23,02,11,9.20
2008,10,23,02,12,9.20
2008,10,23,02,13,9.20
2008,10,23,02,14,9.20
2008,10,23,02,15,9.20
2008,10,23,02,16,9.20
2008,10,23,02,17,9.20
2008,10,23,02,18,9.20
2008,10,23,02,19,9.20
2008,10,23,02,20,9.20
2008,10,23,02,21,9.20
2008,10,23,02,22,9.20
2008,10,23,02,23,9.20
2008,10,23,02,24,9.20
2008,10,23,02,25,9.20
2008,10,23,02,26,9.20
2008,10,23,02,27,9.20
2008,10,23,02,28,9.20
2008,10,23,02,29,9.10
2008,10,23,02,30,9.10
2008,10,23,02,31,9.10
2008,10,23,02,32,9.10
2008,10,23,02,33,9.10
2008,10,23,02,34,9.00
2008,10,23,02,35,9.00
2008,10,23,02,36,9.00
2008,10,23,02,37,9.00
2008,10,23,02,38,9.00
2008,10,23,02,39,9.00
2008,10,23,02,40,9.00
2008,10,23,02,41,9.10
2008,10,23,02,42,9.10
2008,10,23,02,43,9.10
2008,10,23,02,44,9.10
2008,10,23,02,45,9.10
2008,10,23,02,46,9.10
2008,10,23,02,47,9.10
2008,10,23,02,48,9.10
2008,10,23,02,49,9.10
2008,10,23,02,50,9.10
2008,10,23,02,51,9.10
2008,10,23,02,52,9.10
2008,10,23,02,53,9.10
2008,10,23,02,54,9.10
2008,10,23,02,55,9.20
2008,10,23,02,56,9.20
2008,10,23,02,57,9.20
2008,10,23,02,58,9.20
2008,10,23,02,59,9.20
2008,10,23,03,00,9.20
2008,10,23,03,01,9.20
2008,10,23,03,02,9.20
2008,10,23,03,03,9.20
2008,10,23,03,04,9.20
2008,10,23,03,05,9.20
2008,10,23,03,06,9.30
2008,10,23,03,07,9.30
2008,10,23,03,08,9.30
2008,10,23,03,09,9.30
2008,10,23,03,10,9.30
2008,10,23,03,11,9.30
2008,10,23,03,12,9.30
2008,10,23,03,13,9.40
2008,10,23,03,14,9.40
2008,10,23,03,15,9.40
2008,10,23,03,16,9.40
2008,10,23,03,17,9.40
2008,10,23,03,18,9.40
2008,10,23,03,19,9.40
2008,10,23,03,20,9.50
2008,10,23,03,21,9.50
2008,10,23,03,22,9.50
2008,10,23,03,23,9.50
2008,10,23,03,24,9.50
2008,10,23,03,25,9.50
2008,10,23,03,26,9.50
2008,10,23,03,27,9.50
2008,10,23,03,28,9.50
2008,10,23,03,29,9.50
2008,10,23,03,30,9.50
2008,10,23,03,31,9.50
2008,10,23,03,32,9.50
2008,10,23,03,33,9.50
2008,10,23,03,34,9.50
2008,10,23,03,35,9.50
2008,10,23,03,36,9.50
2008,10,23,03,37,9.50
2008,10,23,03,38,9.50
2008,10,23,03,39,9.50
2008,10,23,03,40,9.50
2008,10,23,03,41,9.50
2008,10,23,03,42,9.50
2008,10,23,03,43,9.50
2008,10,23,03,44,9.50
2008,10,23,03,45,9.50
2008,10,23,03,46,9.50
2008,10,23,03,47,9.50
2008,10,23,03,48,9.50
2008,10,23,03,49,9.50
2008,10,23,03,50,9.50
2008,10,23,03,51,9.50
2008,10,23,03,52,9.50
2008,10,23,03,53,9.50
2008,10,23,03,54,9.50
2008,10,23,03,55,9.50
2008,10,23,03,56,9.50
2008,10,23,03,57,9.50
2008,10,23,03,58,9.50
2008,10,23,03,59,9.50
2008,10,23,04,00,9.50
2008,10,23,04,01,9.50
2008,10,23,04,02,9.50
2008,10,23,04,03,9.50
2008,10,23,04,04,9.50
2008,10,23,04,05,9.50
2008,10,23,04,06,9.50
2008,10,23,04,07,9.50
2008,10,23,04,08,9.50
2008,10,23,04,09,9.50
2008,10,23,04,10,9.50
2008,10,23,04,11,9.50
2008,10,23,04,12,9.50
2008,10,23,04,13,9.50
2008,10,23,04,14,9.50
2008,10,23,04,15,9.40
2008,10,23,04,16,9.40
2008,10,23,04,17,9.40
2008,10,23,04,18,9.40
2008,10,23,04,19,9.40
2008,10,23,04,20,9.40
2008,10,23,04,21,9.40
2008,10,23,04,22,9.40
2008,10,23,04,23,9.40
2008,10,23,04,24,9.40
2008,10,23,04,25,9.40
2008,10,23,04,26,9.40
2008,10,23,04,27,9.40
2008,10,23,04,28,9.40
2008,10,23,04,29,9.40
2008,10,23,04,30,9.40
2008,10,23,04,31,9.40
2008,10,23,04,32,9.40
2008,10,23,04,33,9.40
2008,10,23,04,34,9.40
2008,10,23,04,35,9.40
2008,10,23,04,36,9.40
2008,10,23,04,37,9.40
2008,10,23,04,38,9.40
2008,10,23,04,39,9.40
2008,10,23,04,40,9.40
2008,10,23,04,41,9.40
2008,10,23,04,42,9.40
2008,10,23,04,43,9.40
2008,10,23,04,44,9.40
2008,10,23,04,45,9.40
2008,10,23,04,46,9.40
2008,10,23,04,47,9.40
2008,10,23,04,48,9.40
2008,10,23,04,49,9.40
2008,10,23,04,50,9.40
2008,10,23,04,51,9.40
2008,10,23,04,52,9.40
2008,10,23,04,53,9.40
2008,10,23,04,54,9.40
2008,10,23,04,55,9.40
2008,10,23,04,56,9.40
2008,10,23,04,57,9.40
2008,10,23,04,58,9.50
2008,10,23,04,59,9.50
2008,10,23,05,00,9.50
2008,10,23,05,01,9.50
2008,10,23,05,02,9.50
2008,10,23,05,03,9.50
2008,10,23,05,04,9.50
2008,10,23,05,05,9.50
2008,10,23,05,06,9.50
2008,10,23,05,07,9.40
2008,10,23,05,08,9.40
2008,10,23,05,09,9.40
2008,10,23,05,10,9.40
2008,10,23,05,11,9.40
2008,10,23,05,12,9.40
2008,10,23,05,13,9.40
2008,10,23,05,14,9.40
2008,10,23,05,15,9.40
2008,10,23,05,16,9.40
2008,10,23,05,17,9.40
2008,10,23,05,18,9.40
2008,10,23,05,19,9.40
2008,10,23,05,20,9.40
2008,10,23,05,21,9.40
2008,10,23,05,22,9.40
2008,10,23,05,23,9.40
2008,10,23,05,24,9.40
2008,10,23,05,25,9.40
2008,10,23,05,26,9.40
2008,10,23,05,27,9.40
2008,10,23,05,28,9.40
2008,10,23,05,29,9.40
2008,10,23,05,30,9.40
2008,10,23,05,31,9.40
2008,10,23,05,32,9.40
2008,10,23,05,33,9.40
2008,10,23,05,34,9.40
2008,10,23,05,35,9.40
2008,10,23,05,36,9.40
2008,10,23,05,37,9.40
2008,10,23,05,38,9.40
2008,10,23,05,39,9.30
2008,10,23,05,40,9.30
2008,10,23,05,41,9.30
2008,10,23,05,42,9.30
2008,10,23,05,43,9.30
2008,10,23,05,44,9.30
2008,10,23,05,45,9.30
2008,10,23,05,46,9.30
2008,10,23,05,47,9.30
2008,10,23,05,48,9.30
2008,10,23,05,49,9.30
2008,10,23,05,50,9.30
2008,10,23,05,51,9.30
2008,10,23,05,52,9.30
2008,10,23,05,53,9.30
2008,10,23,05,54,9.30
2008,10,23,05,55,9.30
2008,10,23,05,56,9.30
2008,10,23,05,57,9.30
2008,10,23,05,58,9.30
2008,10,23,05,59,9.30
2008,10,23,06,00,9.30
2008,10,23,06,01,9.30
2008,10,23,06,02,9.30
2008,10,23,06,03,9.30
2008,10,23,06,04,9.30
2008,10,23,06,05,9.30
2008,10,23,06,06,9.30
2008,10,23,06,07,9.30
2008,10,23,06,08,9.30
2008,10,23,06,09,9.30
2008,10,23,06,10,9.30
2008,10,23,06,11,9.30
2008,10,23,06,12,9.30
2008,10,23,06,13,9.20
2008,10,23,06,14,9.20
2008,10,23,06,15,9.20
2008,10,23,06,16,9.20
2008,10,23,06,17,9.20
2008,10,23,06,18,9.20
2008,10,23,06,19,9.20
2008,10,23,06,20,9.20
2008,10,23,06,21,9.20
2008,10,23,06,22,9.20
2008,10,23,06,23,9.20
2008,10,23,06,24,9.20
2008,10,23,06,25,9.10
2008,10,23,06,26,9.10
2008,10,23,06,27,9.10
2008,10,23,06,28,9.00
2008,10,23,06,29,9.00
2008,10,23,06,30,9.00
2008,10,23,06,31,8.90
2008,10,23,06,32,8.90
2008,10,23,06,33,8.90
2008,10,23,06,34,8.90
2008,10,23,06,35,8.90
2008,10,23,06,36,8.80
2008,10,23,06,37,8.80
2008,10,23,06,38,8.80
2008,10,23,06,39,8.70
2008,10,23,06,40,8.70
2008,10,23,06,41,8.70
2008,10,23,06,42,8.70
2008,10,23,06,43,8.70
2008,10,23,06,44,8.70
2008,10,23,06,45,8.60
2008,10,23,06,46,8.60
2008,10,23,06,47,8.50
2008,10,23,06,48,8.50
2008,10,23,06,49,8.50
2008,10,23,06,50,8.40
2008,10,23,06,51,8.40
2008,10,23,06,52,8.30
2008,10,23,06,53,8.30
2008,10,23,06,54,8.30
2008,10,23,06,55,8.30
2008,10,23,06,56,8.30
2008,10,23,06,57,8.30
2008,10,23,06,58,8.30
2008,10,23,06,59,8.30
2008,10,23,07,00,8.30
2008,10,23,07,01,8.30
2008,10,23,07,02,8.30
2008,10,23,07,03,8.30
2008,10,23,07,04,8.30
2008,10,23,07,05,8.30
2008,10,23,07,06,8.40
2008,10,23,07,07,8.40
2008,10,23,07,08,8.40
2008,10,23,07,09,8.40
2008,10,23,07,10,8.30
2008,10,23,07,11,8.30
2008,10,23,07,12,8.30
2008,10,23,07,13,8.30
2008,10,23,07,14,8.30
2008,10,23,07,15,8.20
2008,10,23,07,16,8.20
2008,10,23,07,17,8.20
2008,10,23,07,18,8.20
2008,10,23,07,19,8.20
2008,10,23,07,20,8.20
2008,10,23,07,21,8.20
2008,10,23,07,22,8.10
2008,10,23,07,23,8.10
2008,10,23,07,24,8.10
2008,10,23,07,25,8.00
2008,10,23,07,26,8.00
2008,10,23,07,27,7.90
2008,10,23,07,28,7.90
2008,10,23,07,29,7.90
2008,10,23,07,30,7.80
2008,10,23,07,31,7.80
2008,10,23,07,32,7.80
2008,10,23,07,33,7.80
2008,10,23,07,34,7.80
2008,10,23,07,35,7.70
2008,10,23,07,36,7.70
2008,10,23,07,37,7.70
2008,10,23,07,38,7.60
2008,10,23,07,39,7.60
2008,10,23,07,40,7.60
2008,10,23,07,41,7.60
2008,10,23,07,42,7.60
2008,10,23,07,43,7.50
2008,10,23,07,44,7.50
2008,10,23,07,45,7.50
2008,10,23,07,46,7.50
2008,10,23,07,47,7.50
2008,10,23,07,48,7.40
2008,10,23,07,49,7.40
2008,10,23,07,50,7.40
2008,10,23,07,51,7.30
2008,10,23,07,52,7.30
2008,10,23,07,53,7.30
2008,10,23,07,54,7.30
2008,10,23,07,55,7.30
2008,10,23,07,56,7.40
2008,10,23,07,57,7.40
2008,10,23,07,58,7.40
2008,10,23,07,59,7.40
2008,10,23,08,00,7.40
2008,10,23,08,01,7.50
2008,10,23,08,02,7.50
2008,10,23,08,03,7.50
2008,10,23,08,04,7.60
2008,10,23,08,05,7.60
2008,10,23,08,06,7.60
2008,10,23,08,07,7.70
2008,10,23,08,08,7.70
2008,10,23,08,09,7.70
2008,10,23,08,10,7.80
2008,10,23,08,11,7.80
2008,10,23,08,12,7.80
2008,10,23,08,13,7.80
2008,10,23,08,14,7.80
2008,10,23,08,15,7.80
2008,10,23,08,16,7.80
2008,10,23,08,17,7.80
2008,10,23,08,18,7.80
2008,10,23,08,19,7.80
2008,10,23,08,20,7.80
2008,10,23,08,21,7.80
2008,10,23,08,22,7.80
2008,10,23,08,23,7.80
2008,10,23,08,24,7.80
2008,10,23,08,25,7.80
2008,10,23,08,26,7.80
2008,10,23,08,27,7.70
2008,10,23,08,28,7.70
2008,10,23,08,29,7.70
2008,10,23,08,30,7.70
2008,10,23,08,31,7.70
2008,10,23,08,32,7.80
2008,10,23,08,33,7.80
2008,10,23,08,34,7.80
2008,10,23,08,35,7.80
2008,10,23,08,36,7.80
2008,10,23,08,37,7.90
2008,10,23,08,38,7.90
2008,10,23,08,39,7.90
2008,10,23,08,40,7.90
2008,10,23,08,41,7.90
2008,10,23,08,42,7.90
2008,10,23,08,43,7.90
2008,10,23,08,44,7.90
2008,10,23,08,45,7.90
2008,10,23,08,46,7.90
2008,10,23,08,47,7.90
2008,10,23,08,48,7.90
2008,10,23,08,49,8.00
2008,10,23,08,50,8.00
2008,10,23,08,51,8.00
2008,10,23,08,52,8.10
2008,10,23,08,53,8.10
2008,10,23,08,54,8.20
2008,10,23,08,55,8.30
2008,10,23,08,56,8.40
2008,10,23,08,57,8.50
2008,10,23,08,58,8.60
2008,10,23,08,59,8.70
2008,10,23,09,00,8.80
2008,10,23,09,01,8.80
2008,10,23,09,02,8.90
2008,10,23,09,03,8.80
2008,10,23,09,04,8.80
2008,10,23,09,05,8.80
2008,10,23,09,06,8.80
2008,10,23,09,07,8.70
2008,10,23,09,08,8.70
2008,10,23,09,09,8.70
2008,10,23,09,10,8.70
2008,10,23,09,11,8.80
2008,10,23,09,12,8.80
2008,10,23,09,13,8.80
2008,10,23,09,14,8.80
2008,10,23,09,15,8.80
2008,10,23,09,16,8.90
2008,10,23,09,17,8.90
2008,10,23,09,18,9.00
2008,10,23,09,19,9.10
2008,10,23,09,20,9.20
2008,10,23,09,21,9.30
2008,10,23,09,22,9.30
2008,10,23,09,23,9.40
2008,10,23,09,24,9.40
2008,10,23,09,25,9.50
2008,10,23,09,26,9.60
2008,10,23,09,27,9.70
2008,10,23,09,28,9.80
2008,10,23,09,29,9.90
2008,10,23,09,30,9.90
2008,10,23,09,31,9.90
2008,10,23,09,32,9.90
2008,10,23,09,33,9.90
2008,10,23,09,34,10.00
2008,10,23,09,35,10.10
2008,10,23,09,36,10.10
2008,10,23,09,37,10.10
2008,10,23,09,38,10.10
2008,10,23,09,39,10.10
2008,10,23,09,40,10.10
2008,10,23,09,41,10.10
2008,10,23,09,42,10.10
2008,10,23,09,43,10.10
2008,10,23,09,44,10.10
2008,10,23,09,45,10.10
2008,10,23,09,46,10.20
2008,10,23,09,47,10.20
2008,10,23,09,48,10.20
2008,10,23,09,49,10.20
2008,10,23,09,50,10.30
2008,10,23,09,51,10.30
2008,10,23,09,52,10.30
2008,10,23,09,53,10.40
2008,10,23,09,54,10.40
2008,10,23,09,55,10.40
2008,10,23,09,56,10.50
2008,10,23,09,57,10.60
2008,10,23,09,58,10.70
2008,10,23,09,59,10.70
2008,10,23,10,00,10.70
2008,10,23,10,01,10.70
2008,10,23,10,02,10.70
2008,10,23,10,03,10.60
2008,10,23,10,04,10.60
2008,10,23,10,05,10.60
2008,10,23,10,06,10.60
2008,10,23,10,07,10.60
2008,10,23,10,08,10.60
2008,10,23,10,09,10.60
2008,10,23,10,10,10.60
2008,10,23,10,11,10.70
2008,10,23,10,12,10.70
2008,10,23,10,13,10.70
2008,10,23,10,14,10.80
2008,10,23,10,15,10.80
2008,10,23,10,16,10.80
2008,10,23,10,17,10.90
2008,10,23,10,18,10.90
2008,10,23,10,19,10.90
2008,10,23,10,20,10.90
2008,10,23,10,21,10.90
2008,10,23,10,22,10.90
2008,10,23,10,23,10.90
2008,10,23,10,24,10.90
2008,10,23,10,25,10.90
2008,10,23,10,26,10.90
2008,10,23,10,27,10.90
2008,10,23,10,28,10.90
2008,10,23,10,29,10.90
2008,10,23,10,30,10.90
2008,10,23,10,31,10.90
2008,10,23,10,32,10.90
2008,10,23,10,33,10.90
2008,10,23,10,34,10.90
2008,10,23,10,35,10.90
2008,10,23,10,36,10.90
2008,10,23,10,37,10.90
2008,10,23,10,38,10.90
2008,10,23,10,39,10.90
2008,10,23,10,40,10.90
2008,10,23,10,41,10.90
2008,10,23,10,42,10.90
2008,10,23,10,43,11.00
2008,10,23,10,44,11.10
2008,10,23,10,45,11.10
2008,10,23,10,46,11.10
2008,10,23,10,47,11.10
2008,10,23,10,48,11.10
2008,10,23,10,49,11.10
2008,10,23,10,50,11.10
2008,10,23,10,51,11.10
2008,10,23,10,52,11.10
2008,10,23,10,53,11.10
2008,10,23,10,54,11.10
2008,10,23,10,55,11.10
2008,10,23,10,56,11.10
2008,10,23,10,57,11.10
2008,10,23,10,58,11.10
2008,10,23,10,59,11.10
2008,10,23,11,00,11.10
2008,10,23,11,01,11.10
2008,10,23,11,02,11.10
2008,10,23,11,03,11.10
2008,10,23,11,04,11.20
2008,10,23,11,05,11.20
2008,10,23,11,06,11.30
2008,10,23,11,07,11.40
2008,10,23,11,08,11.40
2008,10,23,11,09,11.40
2008,10,23,11,10,11.40
2008,10,23,11,11,11.40
2008,10,23,11,12,11.40
2008,10,23,11,13,11.50
2008,10,23,11,14,11.60
2008,10,23,11,15,11.60
2008,10,23,11,16,11.70
2008,10,23,11,17,11.80
2008,10,23,11,18,11.80
2008,10,23,11,19,11.80
2008,10,23,11,20,11.90
2008,10,23,11,21,11.90
2008,10,23,11,22,12.00
2008,10,23,11,23,12.10
2008,10,23,11,24,12.20
2008,10,23,11,25,12.30
2008,10,23,11,26,12.40
2008,10,23,11,27,12.50
2008,10,23,11,28,12.70
2008,10,23,11,29,12.80
2008,10,23,11,30,12.90
2008,10,23,11,31,13.00
2008,10,23,11,32,13.00
2008,10,23,11,33,13.00
2008,10,23,11,34,13.00
2008,10,23,11,35,13.00
2008,10,23,11,36,13.00
2008,10,23,11,37,13.00
2008,10,23,11,38,13.00
2008,10,23,11,39,13.10
2008,10,23,11,40,13.10
2008,10,23,11,41,13.10
2008,10,23,11,42,13.10
2008,10,23,11,43,13.10
2008,10,23,11,44,13.20
2008,10,23,11,45,13.10
2008,10,23,11,46,13.10
2008,10,23,11,47,13.20
2008,10,23,11,48,13.20
2008,10,23,11,49,13.20
2008,10,23,11,50,13.20
2008,10,23,11,51,13.20
2008,10,23,11,52,13.10
2008,10,23,11,53,13.10
2008,10,23,11,54,13.00
2008,10,23,11,55,13.10
2008,10,23,11,56,13.10
2008,10,23,11,57,13.10
2008,10,23,11,58,13.10
2008,10,23,11,59,13.10
2008,10,23,12,00,13.10
2008,10,23,12,01,13.10
2008,10,23,12,02,13.00
2008,10,23,12,03,13.00
2008,10,23,12,04,13.00
2008,10,23,12,05,13.00
2008,10,23,12,06,13.10
2008,10,23,12,07,13.00
2008,10,23,12,08,13.00
2008,10,23,12,09,13.00
2008,10,23,12,10,12.90
2008,10,23,12,11,12.90
2008,10,23,12,12,12.90
2008,10,23,12,13,12.90
2008,10,23,12,14,12.90
2008,10,23,12,15,12.90
2008,10,23,12,16,13.00
2008,10,23,12,17,13.00
2008,10,23,12,18,12.90
2008,10,23,12,19,12.90
2008,10,23,12,20,12.90
2008,10,23,12,21,12.90
2008,10,23,12,22,12.80
2008,10,23,12,23,12.90
2008,10,23,12,24,12.90
2008,10,23,12,25,13.00
2008,10,23,12,26,13.00
2008,10,23,12,27,13.00
2008,10,23,12,28,13.00
2008,10,23,12,29,13.00
2008,10,23,12,30,13.00
2008,10,23,12,31,12.90
2008,10,23,12,32,12.90
2008,10,23,12,33,12.80
2008,10,23,12,34,12.80
2008,10,23,12,35,12.80
2008,10,23,12,36,12.90
2008,10,23,12,37,13.00
2008,10,23,12,38,13.00
2008,10,23,12,39,13.20
2008,10,23,12,40,13.30
2008,10,23,12,41,13.30
2008,10,23,12,42,13.30
2008,10,23,12,43,13.40
2008,10,23,12,44,13.50
2008,10,23,12,45,13.60
2008,10,23,12,46,13.60
2008,10,23,12,47,13.70
2008,10,23,12,48,13.70
2008,10,23,12,49,13.70
2008,10,23,12,50,13.70
2008,10,23,12,51,13.60
2008,10,23,12,52,13.60
2008,10,23,12,53,13.50
2008,10,23,12,54,13.50
2008,10,23,12,55,13.40
2008,10,23,12,56,13.30
2008,10,23,12,57,13.30
2008,10,23,12,58,13.20
2008,10,23,12,59,13.20
2008,10,23,13,00,13.10
2008,10,23,13,01,13.00
2008,10,23,13,02,13.00
2008,10,23,13,03,12.90
2008,10,23,13,04,12.90
2008,10,23,13,05,12.80
2008,10,23,13,06,12.80
2008,10,23,13,07,12.90
2008,10,23,13,08,12.90
2008,10,23,13,09,12.80
2008,10,23,13,10,12.80
2008,10,23,13,11,12.90
2008,10,23,13,12,13.00
2008,10,23,13,13,13.00
2008,10,23,13,14,13.00
2008,10,23,13,15,13.00
2008,10,23,13,16,13.00
2008,10,23,13,17,12.90
2008,10,23,13,18,12.90
2008,10,23,13,19,12.80
2008,10,23,13,20,12.80
2008,10,23,13,21,12.80
2008,10,23,13,22,12.90
2008,10,23,13,23,12.90
2008,10,23,13,24,13.00
2008,10,23,13,25,13.00
2008,10,23,13,26,13.00
2008,10,23,13,27,13.10
2008,10,23,13,28,13.10
2008,10,23,13,29,13.10
2008,10,23,13,30,13.20
2008,10,23,13,31,13.20
2008,10,23,13,32,13.20
2008,10,23,13,33,13.20
2008,10,23,13,34,13.20
2008,10,23,13,35,13.10
2008,10,23,13,36,13.00
2008,10,23,13,37,13.10
2008,10,23,13,38,13.00
2008,10,23,13,39,13.00
2008,10,23,13,40,13.00
2008,10,23,13,41,12.90
2008,10,23,13,42,12.90
2008,10,23,13,43,12.90
2008,10,23,13,44,12.90
2008,10,23,13,45,12.90
2008,10,23,13,46,13.00
2008,10,23,13,47,13.00
2008,10,23,13,48,13.00
2008,10,23,13,49,12.90
2008,10,23,13,50,12.90
2008,10,23,13,51,12.80
2008,10,23,13,52,12.80
2008,10,23,13,53,12.80
2008,10,23,13,54,12.80
2008,10,23,13,55,12.80
2008,10,23,13,56,12.80
2008,10,23,13,57,12.80
2008,10,23,13,58,12.80
2008,10,23,13,59,12.80
2008,10,23,14,00,12.80
2008,10,23,14,01,12.80
2008,10,23,14,02,12.80
2008,10,23,14,03,12.80
2008,10,23,14,04,12.80
2008,10,23,14,05,12.80
2008,10,23,14,06,12.90
2008,10,23,14,07,12.90
2008,10,23,14,08,12.90
2008,10,23,14,09,12.90
2008,10,23,14,10,12.80
2008,10,23,14,11,12.80
2008,10,23,14,12,12.80
2008,10,23,14,13,12.80
2008,10,23,14,14,12.80
2008,10,23,14,15,12.80
2008,10,23,14,16,12.80
2008,10,23,14,17,12.80
2008,10,23,14,18,12.80
2008,10,23,14,19,12.80
2008,10,23,14,20,12.80
2008,10,23,14,21,12.90
2008,10,23,14,22,12.90
2008,10,23,14,23,13.00
2008,10,23,14,24,13.00
2008,10,23,14,25,13.00
2008,10,23,14,26,13.00
2008,10,23,14,27,12.90
2008,10,23,14,28,12.80
2008,10,23,14,29,12.80
2008,10,23,14,30,12.80
2008,10,23,14,31,12.70
2008,10,23,14,32,12.60
2008,10,23,14,33,12.50
2008,10,23,14,34,12.50
2008,10,23,14,35,12.30
2008,10,23,14,36,12.30
2008,10,23,14,37,12.30
2008,10,23,14,38,12.30
2008,10,23,14,39,12.30
2008,10,23,14,40,12.30
2008,10,23,14,41,12.30
2008,10,23,14,42,12.40
2008,10,23,14,43,12.40
2008,10,23,14,44,12.40
2008,10,23,14,45,12.50
2008,10,23,14,46,12.50
2008,10,23,14,47,12.50
2008,10,23,14,48,12.50
2008,10,23,14,49,12.50
2008,10,23,14,50,12.50
2008,10,23,14,51,12.50
2008,10,23,14,52,12.40
2008,10,23,14,53,12.40
2008,10,23,14,54,12.50
2008,10,23,14,55,12.40
2008,10,23,14,56,12.50
2008,10,23,14,57,12.40
2008,10,23,14,58,12.40
2008,10,23,14,59,12.30
2008,10,23,15,00,12.30
2008,10,23,15,01,12.30
2008,10,23,15,02,12.30
2008,10,23,15,03,12.30
2008,10,23,15,04,12.30
2008,10,23,15,05,12.30
2008,10,23,15,06,12.40
2008,10,23,15,07,12.30
2008,10,23,15,08,12.40
2008,10,23,15,09,12.40
2008,10,23,15,10,12.40
2008,10,23,15,11,12.40
2008,10,23,15,12,12.40
2008,10,23,15,13,12.40
2008,10,23,15,14,12.40
2008,10,23,15,15,12.40
2008,10,23,15,16,12.30
2008,10,23,15,17,12.30
2008,10,23,15,18,12.20
2008,10,23,15,19,12.10
2008,10,23,15,20,12.10
2008,10,23,15,21,12.10
2008,10,23,15,22,12.10
2008,10,23,15,23,12.10
2008,10,23,15,24,12.10
2008,10,23,15,25,12.10
2008,10,23,15,26,12.10
2008,10,23,15,27,12.00
2008,10,23,15,28,12.00
2008,10,23,15,29,12.00
2008,10,23,15,30,11.90
2008,10,23,15,31,11.90
2008,10,23,15,32,11.90
2008,10,23,15,33,11.90
2008,10,23,15,34,11.90
2008,10,23,15,35,11.90
2008,10,23,15,36,11.90
2008,10,23,15,37,11.80
2008,10,23,15,38,11.80
2008,10,23,15,39,11.80
2008,10,23,15,40,11.80
2008,10,23,15,41,11.70
2008,10,23,15,42,11.70
2008,10,23,15,43,11.60
2008,10,23,15,44,11.60
2008,10,23,15,45,11.60
2008,10,23,15,46,11.60
2008,10,23,15,47,11.60
2008,10,23,15,48,11.60
2008,10,23,15,49,11.40
2008,10,23,15,50,11.40
2008,10,23,15,51,11.40
2008,10,23,15,52,11.40
2008,10,23,15,53,11.30
2008,10,23,15,54,11.30
2008,10,23,15,55,11.30
2008,10,23,15,56,11.30
2008,10,23,15,57,11.30
2008,10,23,15,58,11.30
2008,10,23,15,59,11.30
2008,10,23,16,00,11.20
2008,10,23,16,01,11.20
2008,10,23,16,02,11.20
2008,10,23,16,03,11.20
2008,10,23,16,04,11.20
2008,10,23,16,05,11.20
2008,10,23,16,06,11.20
2008,10,23,16,07,11.10
2008,10,23,16,08,11.10
2008,10,23,16,09,11.10
2008,10,23,16,10,11.10
2008,10,23,16,11,11.10
2008,10,23,16,12,11.10
2008,10,23,16,13,10.90
2008,10,23,16,14,10.90
2008,10,23,16,15,10.90
2008,10,23,16,16,10.90
2008,10,23,16,17,10.90
2008,10,23,16,18,10.90
2008,10,23,16,19,10.90
2008,10,23,16,20,10.90
2008,10,23,16,21,10.90
2008,10,23,16,22,10.90
2008,10,23,16,23,10.90
2008,10,23,16,24,10.90
2008,10,23,16,25,10.90
2008,10,23,16,26,10.90
2008,10,23,16,27,10.90
2008,10,23,16,28,10.90
2008,10,23,16,29,10.90
2008,10,23,16,30,10.90
2008,10,23,16,31,10.90
2008,10,23,16,32,10.90
2008,10,23,16,33,10.90
2008,10,23,16,34,10.90
2008,10,23,16,35,10.90
2008,10,23,16,36,10.90
2008,10,23,16,37,10.90
2008,10,23,16,38,10.90
2008,10,23,16,39,10.90
2008,10,23,16,40,10.90
2008,10,23,16,41,10.90
2008,10,23,16,42,10.90
2008,10,23,16,43,10.90
2008,10,23,16,44,10.90
2008,10,23,16,45,10.90
2008,10,23,16,46,10.90
2008,10,23,16,47,10.90
2008,10,23,16,48,10.90
2008,10,23,16,49,10.90
2008,10,23,16,50,10.90
2008,10,23,16,51,10.90
2008,10,23,16,52,10.90
2008,10,23,16,53,10.90
2008,10,23,16,54,10.90
2008,10,23,16,55,10.90
2008,10,23,16,56,10.90
2008,10,23,16,57,10.80
2008,10,23,16,58,10.80
2008,10,23,16,59,10.80
2008,10,23,17,00,10.70
2008,10,23,17,01,10.70
2008,10,23,17,02,10.70
2008,10,23,17,03,10.60
2008,10,23,17,04,10.60
2008,10,23,17,05,10.60
2008,10,23,17,06,10.60
2008,10,23,17,07,10.60
2008,10,23,17,08,10.60
2008,10,23,17,09,10.60
2008,10,23,17,10,10.50
2008,10,23,17,11,10.40
2008,10,23,17,12,10.40
2008,10,23,17,13,10.40
2008,10,23,17,14,10.40
2008,10,23,17,15,10.40
2008,10,23,17,16,10.40
2008,10,23,17,17,10.40
2008,10,23,17,18,10.40
2008,10,23,17,19,10.30
2008,10,23,17,20,10.30
2008,10,23,17,21,10.30
2008,10,23,17,22,10.30
2008,10,23,17,23,10.30
2008,10,23,17,24,10.30
2008,10,23,17,25,10.30
2008,10,23,17,26,10.20
2008,10,23,17,27,10.20
2008,10,23,17,28,10.20
2008,10,23,17,29,10.20
2008,10,23,17,30,10.20
2008,10,23,17,31,10.20
2008,10,23,17,32,10.20
2008,10,23,17,33,10.10
2008,10,23,17,34,10.10
2008,10,23,17,35,10.10
2008,10,23,17,36,10.10
2008,10,23,17,37,10.10
2008,10,23,17,38,10.10
2008,10,23,17,39,10.10
2008,10,23,17,40,10.10
2008,10,23,17,41,10.10
2008,10,23,17,42,10.10
2008,10,23,17,43,10.10
2008,10,23,17,44,10.10